Weather History for Kaneohe MCBH, HI

Change the Weather History Date:

Saturday, March 16, 2013

  Actual Average Record
Temperature  
Mean Temperature 72 °F -  
Max Temperature 77 °F 75 °F 129 °F (2002)
Min Temperature 68 °F 67 °F 63 °F (2005)
Cooling Degree Days 8    
Growing Degree Days 22 (Base 50)    
Moisture  
Dew Point 57 °F    
Average Humidity 60    
Maximum Humidity 94    
Minimum Humidity 45    
Precipitation  
Precipitation 0.00 in - - ()
Sea Level Pressure  
Sea Level Pressure 29.96 in    
Wind  
Wind Speed 8 mph (NW)    
Max Wind Speed 17 mph    
Max Gust Speed 24 mph    
Visibility 7 miles    
Events      
Averages and records for this station are not official NWS values.
T = Trace of Precipitation, MM = Missing Value Source: NWS Daily Summary

Daily Weather History Graph

Daily Weather History Graph

Search for Another Location

Airport:

Trip Planner

Search our weather history database for the weather conditions in past years. The results will help you decide how hot, cold, wet, or windy it might be!

Date:

Astronomy

Mar. 16, 2013 Rise Set
Actual Time 6:38 AM HST 6:40 PM HST
Civil Twilight 6:16 AM HST 7:03 PM HST
Nautical Twilight 5:50 AM HST 7:28 PM HST
Astronomical Twilight 5:24 AM HST 7:54 PM HST
Moon 9:53 AM HST (3/16) 11:20 PM HST (3/16)
Length of Visible Light 12h 47m
Length of Day
12h 02m
Waxing Crescent, 25% of the Moon is Illuminated
Mar 16
Waxing Crescent
Mar 19
First Quarter
Mar 26
Full
Apr 2
Last Quarter
Apr 9
New

Hourly Weather History & Observations

Time (HST) Temp. Dew Point Humidity Pressure Visibility Wind Dir Wind Speed Gust Speed Precip Events Conditions
12:57 AM 69.3 °F 67.5 °F 94% 29.95 in 7.0 mi Calm Calm - N/A   Scattered Clouds
1:57 AM 69.3 °F 64.9 °F 86% 29.93 in 7.0 mi West 4.6 mph - N/A   Mostly Cloudy
2:57 AM 69.3 °F 64.0 °F 83% 29.92 in 7.0 mi West 3.5 mph - N/A   Overcast
3:57 AM 68.7 °F 62.1 °F 79% 29.91 in 7.0 mi WNW 5.8 mph - N/A   Mostly Cloudy
4:57 AM 68.7 °F 57.9 °F 68% 29.92 in 7.0 mi WNW 8.1 mph - N/A   Mostly Cloudy
5:57 AM 68.7 °F 57.9 °F 68% 29.94 in 7.0 mi West 6.9 mph - N/A   Mostly Cloudy
6:57 AM 68.7 °F 55.9 °F 64% 29.96 in 7.0 mi WNW 8.1 mph - N/A   Mostly Cloudy
7:57 AM 68.7 °F 54.0 °F 59% 29.97 in 7.0 mi NNW 17.3 mph 21.9 mph N/A   Mostly Cloudy
8:00 AM - - N/A% - - North - - N/A   Unknown
8:57 AM 69.8 °F 54.0 °F 57% 29.99 in 7.0 mi WNW 4.6 mph - N/A   Mostly Cloudy
9:57 AM 71.6 °F 53.1 °F 52% 29.99 in 7.0 mi NW 10.4 mph - N/A   Mostly Cloudy
10:57 AM 71.6 °F 55.0 °F 56% 29.99 in 7.0 mi NNW 13.8 mph - N/A   Mostly Cloudy
11:57 AM 77.0 °F 55.0 °F 47% 29.97 in 7.0 mi NNW 13.8 mph - N/A   Mostly Cloudy
12:57 PM 77.0 °F 55.0 °F 47% 29.95 in 7.0 mi North 17.3 mph - N/A   Mostly Cloudy
1:57 PM 77.0 °F 57.0 °F 50% 29.94 in 7.0 mi NNW 16.1 mph 24.2 mph N/A   Scattered Clouds
2:57 PM 77.0 °F 57.0 °F 50% 29.91 in 7.0 mi North 12.7 mph - N/A   Scattered Clouds
3:57 PM 77.0 °F 55.0 °F 47% 29.91 in 7.0 mi North 17.3 mph - N/A   Clear
4:57 PM 77.0 °F 54.0 °F 45% 29.93 in 7.0 mi North 12.7 mph - N/A   Mostly Cloudy
5:57 PM 77.0 °F 54.0 °F 45% 29.94 in 7.0 mi NNW 11.5 mph 19.6 mph N/A   Mostly Cloudy
6:57 PM 77.0 °F 55.0 °F 47% 29.96 in 7.0 mi NNW 9.2 mph - N/A   Mostly Cloudy
7:57 PM 73.4 °F 55.0 °F 52% 29.98 in 7.0 mi NW 9.2 mph - N/A   Mostly Cloudy
8:57 PM 71.6 °F 55.0 °F 56% 30.01 in 7.0 mi WNW 8.1 mph - N/A   Mostly Cloudy
9:57 PM 69.8 °F 55.0 °F 59% 30.01 in 7.0 mi NNW 8.1 mph - N/A   Scattered Clouds
10:57 PM 69.8 °F 55.9 °F 61% 30.01 in 7.0 mi NNW 9.2 mph - N/A   Mostly Cloudy
11:57 PM 69.8 °F 55.0 °F 59% 30.00 in 7.0 mi NNW 9.2 mph - N/A   Mostly Cloudy